TIME,DELAY(SENSOR),PRES,OXYGEN,RAWTEMP,T(OPTODE),TCPHASE,FLUOR,BETA(BETA700),BETA(BETA412),BETA(BETA440),CDOM,C(CSC),ED(ED411.90),ED(ED443.80),ED(ED489.40),ED(ED554.70),LU(LU412.20),LU(LU443.80),LU(LU489.40),LU(LU555.00),COMP,TILTX,TILTY,CHECK
1342045720,5805,882.6400146484375000,172.3466033935547000,440.4978027343750000,9.3645620346069340,38.7217102050781250,51,101,99,79,80,14544,2146954660,2147512877,2147286646,2147509906,2147092105,2146925284,2147703232,2147115428,773,-2,8,53939
1342049316,5806,1004.1699829101562000,212.7693939208984400,514.8535156250000000,7.0679278373718260,37.3960189819335940,52,105,100,78,81,14537,2146955346,2147517476,2147296228,2147520640,2147091108,2146921060,2147719405,2147117312,1310,-2,8,623
1342052916,5806,1042.9100341796875000,226.1641998291015600,525.5194702148438000,6.7355351448059080,36.8319892883300800,53,101,99,80,83,14534,2146956809,2147518171,2147297316,2147524114,2147092955,2146918006,2147724333,2147116361,3293,-1,8,11924
1342056516,5805,1048.4000244140625000,225.7039031982422000,524.4746093750000000,6.7681350708007810,36.8390388488769500,53,101,101,80,82,14533,2146957842,2147515492,2147296859,2147526848,2147089462,2146917147,2147718921,2147114130,2903,-1,8,3204
1342060116,5804,1051.8599853515625000,225.6737976074218800,525.0565795898438000,6.7499771118164060,36.8505897521972660,53,103,100,78,81,14526,2146957504,2147514358,2147295570,2147523794,2147089152,2146919661,2147723437,2147117165,3310,-1,8,13658
1342063716,5804,1047.2900390625000000,224.7518005371093800,523.7028808593750000,6.7922048568725590,36.8771591186523440,52,104,101,79,82,14526,2146958473,2147514934,2147295844,2147528484,2147093860,2146913572,2147719497,2147117933,371,-1,8,37215
1342067316,5806,1051.4399414062500000,224.9394073486328000,524.4003295898438000,6.7704520225524900,36.8791389465332000,52,101,100,80,81,14523,2146957385,2147519872,2147294427,2147523949,2147090998,2146917202,2147719862,2147117366,3115,-1,8,47446
1342070916,5806,1050.5200195312500000,225.3681030273437500,524.7031250000000000,6.7610092163085940,36.8609085083007800,52,103,100,80,82,14522,2146958290,2147515629,2147298880,2147528320,2147092278,2146913142,2147720896,2147119698,531,-1,8,32133
1342074516,5807,1031.8199462890625000,219.3020019531250000,517.7255859375000000,6.9785041809082030,37.0731697082519500,52,102,99,80,82,14520,2146957366,2147519195,2147295917,2147525604,2147091812,2146912923,2147720667,2147114340,3224,-1,8,56054
1342078116,5805,1030.9100341796875000,217.2785034179687500,516.6851806640625000,7.0109038352966310,37.1698112487793000,52,101,100,80,82,14516,2146953828,2147518610,2147295241,2147522624,2147091209,2146914953,2147719277,2147120722,3401,-1,8,12864
1342081716,5808,1026.4000244140625000,217.7714996337890600,518.4569091796875000,6.9557251930236820,37.1729011535644500,52,103,100,78,82,14516,2146951396,2147518747,2147294720,2147524937,2147090093,2146916288,2147719369,2147119725,89,-1,8,14959
1342085316,5806,1030.6700439453125000,220.3569946289062500,519.2114868164062000,6.9322152137756350,37.0403900146484400,51,103,102,79,82,14516,2146953700,2147517174,2147295232,2147523977,2147094080,2146918089,2147718875,2147115328,149,-1,8,50276
1342088916,5804,1030.1600341796875000,219.6873016357422000,519.1414794921875000,6.9343972206115720,37.0766906738281250,52,104,99,80,82,14513,2146955830,2147517101,2147295305,2147522130,2147090806,2146913609,2147715748,2147115684,176,-1,8,10747
1342092516,5805,1027.0500488281250000,221.2870941162109400,520.3864135742188000,6.8956041336059570,37.0092506408691400,53,102,101,79,81,14515,2146949860,2147516452,2147293787,2147521325,2147094409,2146919250,2147719542,2147116736,1226,-1,8,3515
1342096116,5803,1032.2399902343750000,220.5500030517578000,519.4249267578125000,6.9255661964416500,37.0335502624511700,52,104,99,80,82,14513,2146955099,2147517101,2147295606,2147524809,2147091328,2146926500,2147718765,2147118491,1278,-1,8,10935
1342099716,5804,1032.5200195312500000,220.4136962890625000,519.8167724609375000,6.9133539199829100,37.0484886169433600,52,103,100,79,83,14516,2146954934,2147517485,2147296137,2147523108,2147092315,2146915949,2147718976,2147115977,1953,-1,8,46721
1342103316,5801,1033.2299804687500000,221.3273010253906200,520.2570800781250000,6.8996319770812990,37.0049209594726560,53,100,101,79,82,14508,2146955794,2147518646,2147293385,2147520877,2147091638,2146918674,2147721700,2147113801,1935,-1,8,42532
1342106916,5806,1021.2500000000000000,212.3775939941406200,509.7833862304687500,7.2256522178649900,37.3296890258789060,52,103,100,79,81,14517,2146952448,2147517851,2147294317,2147518052,2147093540,2146922806,2147719597,2147116160,332,-1,8,6650
1342110516,5804,1013.5999755859375000,210.5090026855468800,508.9039916992187500,7.2529878616333010,37.4225807189941400,53,101,99,79,81,14517,2146950930,2147518345,2147294857,2147520347,2147090194,2146919780,2147718336,2147119533,2932,-1,8,50077
1342114116,5804,1014.2999877929688000,211.2156982421875000,509.0293884277344000,7.2490901947021480,37.3834381103515600,53,104,101,79,81,14515,2146958683,2147516690,2147296877,2147523684,2147093613,2146920768,2147718537,2147114880,1001,-2,8,40396
1342117716,5804,1013.4400024414062000,209.9210968017578000,509.7477111816406000,7.2267589569091800,37.4723014831543000,53,101,99,80,82,14511,2146954048,2147519067,2147295753,2147523949,2147093449,2146917485,2147718619,2147114624,542,-1,8,48652
1342121316,5807,1011.5399780273438000,211.4252929687500000,510.5108032226562500,7.2030320167541500,37.3974685668945300,51,105,101,79,81,14514,2146956818,2147515126,2147293376,2147521563,2147094500,2146915474,2147716918,2147119222,848,-1,8,20727
1342124916,5807,1010.4299926757812000,212.4089965820312500,512.2714843750000000,7.1482710838317870,37.3710517883300800,53,103,99,79,82,14505,2146954907,2147517769,2147294043,2147523584,2147092882,2146924891,2147720539,2147117915,856,-1,8,55466
1342128516,5806,1005.4000244140625000,214.0845947265625000,513.1611938476562000,7.1205930709838870,37.2901611328125000,52,106,99,79,82,14512,2146950893,2147510957,2147295296,2147522505,2147094848,2146919021,2147719780,2147117074,2321,-2,8,25612
1342132116,5806,1013.1199951171875000,214.4649963378906200,513.0457763671875000,7.1241822242736820,37.2657585144043000,52,102,101,78,83,14512,2146954486,2147518098,2147297718,2147525275,2147094418,2146921782,2147714980,2147117193,3180,-1,8,43803
1342135716,5802,1016.9400024414062000,213.2642059326172000,511.0609130859375000,7.1859269142150880,37.3002510070800800,52,103,99,79,82,14509,2146956580,2147512960,2147296649,2147523730,2147090377,2146922779,2147715611,2147116041,2866,-1,8,5567
1342139316,5805,1013.4099731445312000,212.7147064208984400,511.1543884277344000,7.1830191612243650,37.3340606689453100,53,102,99,78,82,14506,2146956992,2147514368,2147295104,2147522678,2147091382,2146917942,2147718710,2147120091,3210,-1,8,33395
1342142916,5804,1018.4199829101562000,211.9338989257812500,509.5278930664062500,7.2335929870605470,37.3507194519043000,52,105,99,79,82,14505,2146954925,2147518445,2147295469,2147520914,2147093988,2146919332,2147721078,2147115821,3010,-1,8,27340
1342146516,5804,1021.3499755859375000,211.0391998291015600,508.3168945312500000,7.2712359428405760,37.3812217712402340,52,102,100,79,81,14504,2146955355,2147516022,2147293211,2147523072,2147092498,2146920036,2147717174,2147118985,3206,-1,8,58568
1342150116,5805,1019.8800048828125000,211.0789947509765600,508.6314086914062500,7.2614622116088870,37.3846588134765600,52,102,98,78,83,14506,2146954258,2147517897,2147293293,2147523977,2147094912,2146918016,2147717604,2147118784,3504,-1,8,63538
1342153716,5810,1018.6400146484375000,211.8986968994140600,509.6947021484375000,7.2284069061279300,37.3556404113769500,52,103,101,78,81,14504,2146957504,2147515812,2147294747,2147522660,2147090669,2146918893,2147716891,2147116726,100,-1,8,34117
1342157316,5807,1021.9299926757812000,211.6809997558593800,509.2632141113281000,7.2418231964111330,37.3608398437500000,52,105,101,78,81,14503,2146954724,2147519094,2147293321,2147521664,2147095542,2146916882,2147720009,2147114843,478,-1,8,41290
1342160916,5807,1017.5000000000000000,212.3256988525390600,510.3664855957031000,7.2075209617614750,37.3422203063964840,52,102,99,79,82,14503,2146955373,2147517869,2147292955,2147525476,2147091794,2146917622,2147718198,2147117961,300,-1,8,49226
1342164516,5805,1016.0200195312500000,212.5744018554687500,510.9166870117187500,7.1904110908508300,37.3374786376953100,52,102,102,79,82,14503,2146954907,2147516452,2147294098,2147523437,2147094244,2146918409,2147721261,2147115318,442,-2,8,16076
1342168116,5804,1011.6199951171875000,212.3397979736328000,513.6141967773438000,7.1064977645874020,37.3990516662597660,52,103,100,81,82,14504,2146956580,2147518555,2147296795,2147522258,2147093878,2146920192,2147713700,2147115849,3393,-2,8,10774
1342171716,5804,1017.2000122070312000,214.1739959716797000,513.5036010742188000,7.1099390983581540,37.2907295227050800,52,101,100,79,82,14501,2146954258,2147518793,2147295808,2147523867,2147094354,2146919222,2147714706,2147118134,3545,-2,8,25850
1342175316,5805,1013.5000000000000000,212.6894073486328000,513.7197265625000000,7.1032152175903320,37.3806114196777340,53,101,101,80,81,14498,2146956745,2147518985,2147296246,2147523392,2147090386,2146915035,2147721837,2147121161,3058,-1,8,50040
1342178916,5805,1011.3300170898438000,215.2530975341797000,515.0438232421875000,7.0620069503784180,37.2561683654785160,53,100,100,80,82,14502,2146958912,2147516644,2147292690,2147524480,2147093138,2146920557,2147718491,2147117412,2845,-1,8,20292
1342182516,5801,1018.5999755859375000,214.4230957031250000,512.4274291992188000,7.1434221267700195,37.2574081420898440,53,106,101,79,81,14494,2146955108,2147518518,2147296566,2147526116,2147091547,2146921664,2147718619,2147115995,1697,-2,8,15310
1342186116,5806,1020.0399780273438000,213.2550964355468800,511.3525085449219000,7.1768579483032230,37.3057289123535160,52,102,100,79,82,14491,2146959241,2147517440,2147295104,2147524324,2147093293,2146920621,2147720539,2147116041,1714,-2,8,7502
1342187455,5803,1020.3599853515625000,213.3211975097656200,511.3693847656250000,7.1763319969177250,37.3023490905761700,53,103,102,80,81,14487,2146955766,2147516918,2147294893,2147523437,2147092982,2146922166,2147718281,2147117714,1606,-2,8,43451
